Other Surface Observations
Issued by NWS

Home | Current Version | Previous Version | Text Only | Print | Product List | Glossary On
Versions: 1 2 3 4 5 6 7 8 9 10 11 12 13 14 15 16 17 18 19 20 21 22 23 24 25 26 27 28 29 30 31 32 33 34 35 36 37 38 39 40 41 42 43 44 45 46 47 48 49 50
000
SXUS52 KTAE 282219
OSOTAE
OSOTAE
North Florida/South Alabama/Southwest Georgia Weather Roundup
National Weather Service Tallahassee Florida
600 PM EDT TUE MAR 28 2017

Note: "fair" indicates few or no clouds below 12,000 feet with no
significant weather and/or obstructions to visibility.

!FLZ017-115-028-034-025-282300
...North Florida...

CITY           SKY/WX    TMP DP  RH WIND       PRES   REMARKS
TALLAHASSEE    PTSUNNY   80  64  58 S9        29.97S
APALACHICOLA   SUNNY     76  66  71 SW13      30.00F
PERRY          SUNNY     79  58  49 SW13      30.00S
CROSS CITY     SUNNY     81  55  41 W12       29.99S
JACKSONVILLE   MOSUNNY   83  53  35 VRB5      29.94S
$$

!FLZ112-006-005-002-011-282300
...Florida Panhandle...

CITY           SKY/WX    TMP DP  RH WIND       PRES   REMARKS
MARIANNA       MOSUNNY   79  63  57 W9        29.96S
BONIFAY        FAIR      79  68  69 SW3       29.96
PANAMA CITY NW FAIR      76  66  71 S12       29.98S
TYNDALL AFB    MOSUNNY   75  68  78 SW12      30.00S
TYND DRONE APT MOCLDY    73  70  88 S14G32    30.00S
DE FUNIAK SPR  FAIR      79  59  50 SW7       29.97F
EGLIN AFB      MOSUNNY   76  68  76 SW7       29.97F
DESTIN         SUNNY     78  73  84 SW6       29.98F
HURLBURT       MOSUNNY   75  64  69 SW9       29.97F
CRESTVIEW      SUNNY     81  61  50 S10       29.97F
PENSACOLA      SUNNY     79  67  66 S12       29.97F
$$

!ALZ063-066-282300
...South Alabama...

CITY           SKY/WX    TMP DP  RH WIND       PRES   REMARKS
DOTHAN         MOSUNNY   82  62  50 SW13      29.98F
OZARK CAIRNS   MOSUNNY   82  63  52 S12       29.94F
FT RUCKER HELI MOSUNNY   84  57  39 SW7       29.93F
RUCKER HELI 3  PTSUNNY   83  56  40 W7        29.94F
RUCKER HELI 2  FAIR      83  57  40 CALM      29.93F
FLORALA APT    SUNNY     81  62  52 SW9       29.97F
ANDALUSIA      PTSUNNY   84  63  49 S8        29.94F
TROY           MOSUNNY   82  59  45 W8        29.95F
EUFALA         FAIR      83  58  42 W8        29.93F
MOBILE         MOSUNNY   79  62  56 S14       29.97S
$$

!GAZ120>161-282300
...Southwest and South Central Georgia...

CITY           SKY/WX    TMP DP  RH WIND       PRES   REMARKS
THOMASVILLE    FAIR      82  63  51 SW3       29.97F
BAINBRIDGE     SUNNY     82  61  47 SW8       29.95F
MOODY AFB      PTSUNNY   77  61  57 CALM      29.95S
VALDOSTA       MOSUNNY   81  56  42 CALM      29.96S
MOULTRIE       SUNNY     82  59  44 SW7       29.96F
BLAKELY        MOSUNNY   86  59  39 SW6       29.95S
ALBANY         PTSUNNY   85  56  37 SW8       29.96S
TIFTON         FAIR      82  58  44 W8        29.95S
FITZGERALD     FAIR      83  60  45 W5        29.97S
CORDELE        CLOUDY    84  57  39 W8        29.95S
AMERICUS       FAIR      79  57  47 NW3       29.97S
HOMERVILLE     PTSUNNY   82  61  47 W7        29.97R
$$

!GMZ750-755-770-775-282300
...Coastal and Buoy Obs...

STATION/POSITION TIME  TEMP    WIND        PRES    VSBY  WAVE
                       AIR SEA DIR/SP/G                  HT/PER
                 (UTC) (F)     (DEG/KT/KT) (MB)    (MI)  (FT/S)
KEATON BEACH     2200   71     220/ 10/ 11 1015.8F
CEDAR KEY        2200   72     270/  7/  9 1016.5S
C TOWER          2200   71     230/  7/  7 1016.7F
APALACHICOLA BUO NOT AVBL
PANAMA CITY BUOY NOT AVBL
MOBILE BUOY      NOT AVBL
ORANGE BCH AL BU NOT AVBL
$$




USA.gov is the U.S. government's official web portal to all federal, state and local government web resources and services.